sat.trackr.live / text

‹ back to catalog

KUIPER-00013

NORAD 63729 · 2025-088F

PAYLOAD ACTIVE UNKNOWN

§ Identity

Operator
Country
US
Launch date
2025-04-28
Launch site
AFETR
Launch vehicle
Mass (kg)
RCS (m²)

External: N2YO · Heavens-Above · Gunter

§ Orbital elements

Epoch: 2026-09-21T16:27:55.261728Z

Period
97.30 min
Inclination
51.9027°
Eccentricity
0.0000343
Mean motion
14.79928966 rev/d
Perigee alt
629.3 km
Apogee alt
629.8 km
Semi-major
7,007.7 km
B*
1.0464e-4
RAAN
321.4265°
Arg perigee
83.1028°
Mean anomaly
276.9974°
Rev number
7,659

§ Raw data

KUIPER-000131 63729U 25088F   26264.68605627  .00000577  00000+0  10464-3 0  99962 63729  51.9027 321.4265 0000343  83.1028 276.9974 14.79928966 76590

JSON: /api/v1/satellites/63729 · /tle

For live sub-satellite position, see the globe view (requires WebGL).

§ Visibility from observer

Set your observer location to see the next 7 days of passes ≥ 10°. The values pass through the URL so the page stays shareable.

No JS? Fill the form by hand. The geolocation button needs JavaScript.